N2DJ Weather Reports


Display with metric or nautical units.
time (UTC)temp
F
wind
direction
speed
MPH
gust
MPH
rain 1hr
in
rain 24hr
in
rain mn
in
humidity
%
barometer
mb
20260906231515 67 97 0.0 3.0 0.00 0.00 0.00 74 1019.3
20260906230035 68 86 2.0 7.0 0.00 0.00 0.00 72 1019.3
20260906224513 68 87 4.0 9.0 0.00 0.00 0.00 71 1019.3
20260906223011 69 74 2.0 8.0 0.00 0.00 0.00 72 1019.2
20260906221511 70 103 3.0 8.0 0.00 0.00 0.00 70 1019.1
20260906220012 70 65 4.0 11.0 0.00 0.00 0.00 68 1019.2
20260906214510 71 49 3.0 9.0 0.00 0.00 0.00 69 1019.3
20260906213010 71 33 4.0 11.0 0.00 0.00 0.00 68 1019.3
20260906211610 72 13 2.0 7.0 0.00 0.00 0.00 68 1019.3
20260906210012 72 80 4.0 9.0 0.00 0.00 0.00 68 1019.3
20260906204508 72 109 5.0 10.0 0.00 0.00 0.00 67 1019.5
20260906203008 72 101 3.0 10.0 0.00 0.00 0.00 66 1019.3
20260906201506 71 66 3.0 8.0 0.00 0.00 0.00 70 1019.3
20260906200005 71 44 4.0 9.0 0.00 0.00 0.00 74 1019.4
20260906194504 71 37 3.0 11.0 0.00 0.00 0.00 73 1019.4
20260906193004 72 54 5.0 15.0 0.00 0.00 0.00 73 1019.4
20260906191506 72 92 5.0 12.0 0.00 0.00 0.00 72 1019.5
20260906190003 72 63 3.0 12.0 0.00 0.00 0.00 74 1019.4
20260906184502 72 67 5.0 9.0 0.00 0.00 0.00 74 1019.3
20260906183002 72 40 3.0 10.0 0.00 0.00 0.00 73 1019.4
20260906181500 72 36 3.0 10.0 0.00 0.00 0.00 72 1019.4
20260906180114 72 36 3.0 8.0 0.00 0.00 0.00 73 1019.4
20260906174559 71 59 3.0 12.0 0.00 0.00 0.00 76 1019.4
20260906173104 72 65 3.0 9.0 0.00 0.00 0.00 75 1019.3
20260906171602 71 90 3.0 10.0 0.00 0.00 0.00 74 1019.3
20260906170057 70 68 3.0 10.0 0.00 0.00 0.00 76 1019.4
20260906164554 70 72 4.0 11.0 0.00 0.00 0.00 78 1019.5
20260906163109 70 71 3.0 9.0 0.00 0.00 0.00 79 1019.5
20260906161550 70 43 4.0 9.0 0.00 0.00 0.00 79 1019.5
20260906160050 70 50 2.0 8.0 0.00 0.00 0.00 79 1019.5
20260906154548 70 78 3.0 11.0 0.00 0.00 0.00 79 1019.4
20260906153052 70 56 3.0 12.0 0.00 0.00 0.00 80 1019.5
20260906151548 70 34 2.0 7.0 0.00 0.00 0.00 79 1019.5
20260906150045 69 97 2.0 8.0 0.00 0.00 0.00 82 1019.2
20260906144542 70 71 3.0 9.0 0.00 0.00 0.00 81 1019.3
20260906143047 69 337 2.0 10.0 0.00 0.00 0.00 84 1019.1
20260906141538 69 314 3.0 12.0 0.00 0.00 0.00 85 1019.1
20260906140041 68 40 3.0 11.0 0.00 0.00 0.00 86 1019.0
20260906134536 68 83 4.0 13.0 0.00 0.00 0.00 87 1019.0
20260906133032 68 59 3.0 12.0 0.00 0.00 0.00 89 1019.0
20260906131529 68 43 1.0 6.0 0.00 0.00 0.00 92 1018.8
20260906130027 67 32 0.0 4.0 0.00 0.00 0.00 95 1018.8
20260906124522 66 36 1.0 3.0 0.00 0.00 0.00 98 1018.6
20260906123018 64 61 0.0 4.0 0.00 0.00 0.00 99 1018.7
20260906121515 64 93 0.0 4.0 0.00 0.00 0.00 99 1018.4
20260906120112 62 355 0.0 0.0 0.00 0.00 0.00 99 1018.3
20260906114508 60 355 0.0 0.0 0.00 0.00 0.00 99 1018.1
20260906113007 58 355 0.0 0.0 0.00 0.00 0.00 99 1018.1
20260906111504 57 355 0.0 0.0 0.00 0.00 0.00 98 1018.1
20260906110001 56 355 0.0 0.0 0.00 0.00 0.00 98 1017.7
20260906104559 57 355 0.0 0.0 0.00 0.00 0.00 98 1017.6
20260906103057 57 355 0.0 0.0 0.00 0.00 0.00 98 1017.6
20260906101558 57 355 0.0 0.0 0.00 0.00 0.00 98 1017.5
20260906100055 58 355 0.0 0.0 0.00 0.00 0.00 98 1017.4
20260906094552 58 355 0.0 0.0 0.00 0.00 0.00 98 1017.3
20260906093057 58 355 0.0 0.0 0.00 0.00 0.00 98 1017.1
20260906091550 58 355 0.0 0.0 0.00 0.00 0.00 98 1017.0
20260906090049 59 355 0.0 0.0 0.00 0.00 0.00 98 1017.0
20260906084553 59 355 0.0 0.0 0.00 0.00 0.00 98 1016.8
20260906083046 59 355 0.0 0.0 0.00 0.00 0.00 98 1016.6
20260906081545 60 355 0.0 0.0 0.00 0.00 0.00 98 1016.4
20260906080052 60 355 0.0 0.0 0.00 0.00 0.00 98 1016.5
20260906074542 61 355 0.0 0.0 0.00 0.00 0.00 98 1016.5
20260906073038 61 355 0.0 0.0 0.00 0.00 0.00 98 1016.4
20260906071536 62 355 0.0 0.0 0.00 0.00 0.00 98 1016.3
20260906070039 62 355 0.0 0.0 0.00 0.00 0.00 98 1016.4
20260906064536 62 355 0.0 0.0 0.00 0.00 0.00 98 1016.5
20260906063034 62 355 0.0 0.0 0.00 0.00 0.00 98 1016.6
20260906061538 62 355 0.0 0.0 0.00 0.00 0.00 98 1016.6
20260906060036 62 355 0.0 0.0 0.00 0.00 0.00 98 1016.5
20260906054532 62 355 0.0 0.0 0.00 0.00 0.00 98 1016.6
20260906053031 62 355 0.0 0.0 0.00 0.00 0.00 98 1016.6
20260906051530 62 355 0.0 1.0 0.00 0.00 0.00 97 1016.4
20260906050029 63 355 0.0 0.0 0.00 0.00 0.00 97 1016.3
20260906044528 63 355 0.0 1.0 0.00 0.00 0.00 97 1016.2
20260906043027 62 355 0.0 0.0 0.00 0.00 0.00 97 1016.3
20260906041535 62 355 0.0 0.0 0.00 0.00 0.00 97 1016.2
20260906040024 62 355 0.0 0.0 0.00 0.00 0.00 97 1016.2
20260906034527 62 355 0.0 0.0 0.00 0.00 0.00 97 1016.1
20260906033022 62 355 0.0 0.0 0.00 0.00 0.00 97 1016.0
20260906031522 62 355 0.0 0.0 0.00 0.00 0.00 97 1015.9
20260906030022 62 355 0.0 0.0 0.00 0.00 0.00 96 1015.8
20260906024520 62 355 0.0 0.0 0.00 0.00 0.00 96 1015.8
20260906023020 61 355 0.0 0.0 0.00 0.00 0.00 95 1015.8
20260906021520 62 355 0.0 0.0 0.00 0.00 0.00 95 1015.8
20260906020019 62 355 0.0 0.0 0.00 0.00 0.00 95 1015.8
20260906014522 62 355 0.0 0.0 0.00 0.00 0.00 94 1015.6
20260906013017 62 355 0.0 0.0 0.00 0.00 0.00 94 1015.5
20260906011517 63 355 0.0 0.0 0.00 0.00 0.00 93 1015.4
20260906010017 63 355 0.0 0.0 0.00 0.00 0.00 92 1015.3
20260906004516 64 355 0.0 0.0 0.00 0.00 0.00 92 1015.1
20260906003015 64 355 0.0 0.0 0.00 0.00 0.00 91 1015.3
20260906001515 64 355 0.0 0.0 0.00 0.00 0.00 90 1015.2
20260906000015 65 355 0.0 0.0 0.00 0.00 0.00 88 1014.8
20260905234514 65 355 0.0 0.0 0.00 0.00 0.00 85 1015.0
20260905233012 67 355 0.0 0.0 0.00 0.00 0.00 83 1015.1